Regional Weather Roundup
Issued by NWS Cleveland, OH

Home | Current Version | Previous Version | Text Only | Print | Product List | Glossary Off
Versions: 1 2 3 4 5 6 7 8 9 10 11 12 13 14 15 16 17 18 19 20 21 22 23 24 25 26 27 28 29 30 31 32 33 34 35 36 37 38 39 40 41 42 43 44 45 46 47 48 49 50

000
ASUS41 KCLE 100800
RWRCLE
OHIO REGIONAL WEATHER ROUNDUP
NATIONAL WEATHER SERVICE WILMINGTON, OH
300 AM EST SAT DEC 10 2016

NOTE: "FAIR" INDICATES FEW OR NO CLOUDS BELOW 12,000 FEET WITH NO
SIGNIFICANT WEATHER AND/OR OBSTRUCTIONS TO VISIBILITY.

OHZ001>008-015>018-024>027-034-035-043-044-100900-
   NORTHWEST OHIO

CITY           SKY/WX    TMP DP  RH WIND       PRES   REMARKS
DEFIANCE       MOCLDY    23  12  62 W6        30.48R WCI  16
FINDLAY        MOCLDY    22  14  71 W10       30.46S WCI  11
TOLEDO EXPRESS CLOUDY    23  17  78 W14       30.46R WCI  11
TOLEDO EXEC    CLOUDY    25  17  72 W13       30.46R WCI  14
LIMA           FAIR      21  16  81 W10       30.47R WCI  10
$$

OHZ009>014-019>023-028>033-038-089-100900-
   NORTHEAST OHIO

CITY           SKY/WX    TMP DP  RH WIND       PRES   REMARKS
CLE-HOPKINS    CLOUDY    26  18  71 SW14      30.44R WCI  14
CLE-LAKEFRONT  LGT SNOW  27  20  75 SW22      30.41S WCI  13
CUY CO. ARPT   NOT AVBL
LORAIN-ELYRIA  CLOUDY    24  17  74 W13       30.44R WCI  12
ASHTABULA      LGT SNOW  24  22  91 SW13      30.37S FOG     WCI  12
AKRON-CANTON   CLOUDY    24  17  74 W12       30.41R WCI  13
WOOSTER        NOT AVBL
MANSFIELD      CLOUDY    21  16  81 W8        30.42S WCI  11
YOUNGSTOWN     CLOUDY    24  15  68 W13       30.37R WCI  12
$$

OHZ042-051>053-060>062-070>072-077>081-100900-
  SOUTHWEST OHIO

CITY           SKY/WX    TMP DP  RH WIND       PRES   REMARKS
CINC-COVINGTON MOCLDY    19  15  84 SW5       30.53R WCI  12
CINC-LUNKEN    MOCLDY    20  16  84 S5        30.58S WCI  13
HAMILTON       CLOUDY    22  17  81 SW5       30.56R WCI  16
DAYTON         NOT AVBL
WRIGHT-PAT AFB NOT AVBL
DAYTON GENERAL FLURRIES  22  16  78 SW8       30.51R WCI  12
WILMINGTON     CLOUDY    21  16  81 SW9       30.51R WCI  11
$$

OHZ036-037-039>041-045>050-054>059-063>069-073>076-082>088-100900-
  CENTRAL AND SOUTHEAST OHIO

CITY           SKY/WX    TMP DP  RH WIND       PRES   REMARKS
COLUMBUS       CLOUDY    25  19  78 SW8       30.50R WCI  16
OSU AIRPORT    FLURRIES  24  18  77 W9        30.49R WCI  14
BOLTON FIELD   NOT AVBL
RICKENBACK AFB NOT AVBL
NEWARK         CLOUDY    23  19  85 SW6       30.49R WCI  16
MARION         FAIR      22  17  81 W9        30.46S WCI  12
LANCASTER      LGT SNOW  23  19  85 SW7       30.51R FOG     WCI  15
ZANESVILLE     CLOUDY    23  18  81 SW7       30.49R WCI  15
NEW PHILLY     CLOUDY    25  18  74 W6        30.47R WCI  18
$$



USA.gov is the U.S. government's official web portal to all federal, state and local government web resources and services.